Zurück zum Katalog

COSMOS 1375 DEB

AktivLEO
NORAD 18507·DEBRIS·🇷🇺 Russia

Gestartet Jun 6, 1982 von Plesetsk Cosmodrome

Loading…

Nächste Überflüge (nächste 24 Stunden)

TLE

AktuellSource: Space-Track

Epoche: Sep 14, 2026, 14:37 UTC

1 18507U 82055BG  26257.60930682 -.00000089  00000-0 -12391-4 0  9996
2 18507  65.8346  10.4143 0041106  13.2048   0.8694 13.66313954209300

Verfolge COSMOS 1375 DEB in Echtzeit mit AllMySat

Download on the App Store